Location: Balmoral
(33.0667°S, 151.5833°E)
Time: 01:34:29
(UTC+00:00)

H-2A R/B - Pass Details

Date: 18 September 2020
Orbit: 578 x 655 km, 98.5° (Epoch: 21 October)

Event Time Altitude Azimuth Distance (km) Brightness Sun altitude
Rises 18:03:14 0° 158° (SSE) 2,828 6.0 -22.5°
Reaches altitude 10° 18:05:32 10° 149° (SSE) 1,924 5.2 -22.0°
Maximum altitude 18:09:23 37° 81° (E) 931 3.5 -21.2°
Drops below altitude 10° 18:13:15 10° 13° (NNE) 1,924 4.6 -20.4°
Sets 18:15:33 0° 4° (N) 2,828 5.4 -20.0°
